Overview Statistics Trail Chart Weather Telemetry Raw packets
 

This is the latest recevied weather packets stored in our database for station/object KE5QKR. If no packets are shown the sender has not sent any weather packets the latest 10 day(s).

<< 38 39 40 41 42 43 44 >>
Time Temp. Humidity Pressure Rain* Wind** Luminosity Snow
1777728739 12.78° C 96% 1014.6 hPa 0 mm - 130 W/m² -
1777728436 12.78° C 97% 1014.5 hPa 0 mm - 130 W/m² -
1777728133 12.78° C 97% 1014.4 hPa 0 mm - 113 W/m² -
1777727830 12.22° C 98% 1014.5 hPa 0 mm - 83 W/m² -
1777727528 12.22° C 98% 1014.5 hPa 0 mm - 66 W/m² -
1777727225 12.22° C 99% 1014.4 hPa 0 mm - 63 W/m² -
1777726922 11.67° C 99% 1014.2 hPa 0 mm - 43 W/m² -
1777726618 11.67° C 99% 1013.7 hPa 0 mm - 46 W/m² -
1777726316 11.67° C 99% 1013.7 hPa 0 mm - 49 W/m² -
1777726012 11.67° C 99% 1013.5 hPa 0 mm - 47 W/m² -
1777725709 11.67° C 99% 1013.3 hPa 0 mm - 43 W/m² -
1777725409 11.67° C 99% 1013.4 hPa 0 mm - 46 W/m² -
1777725105 11.67° C 99% 1013.5 hPa 0 mm - 44 W/m² -
1777724801 11.67° C 99% 1013.6 hPa 0 mm - 45 W/m² -
1777724498 11.67° C 99% 1013.7 hPa 0 mm - 43 W/m² -
1777724196 11.67° C 99% 1013.5 hPa 0 mm - 40 W/m² -
1777723893 11.67° C 99% 1013.6 hPa 0 mm - 41 W/m² -
1777723590 11.67° C 99% 1013.4 hPa 0 mm - 45 W/m² -
1777723287 11.67° C 99% 1013.4 hPa 0 mm - 34 W/m² -
1777722984 11.11° C 99% 1013.3 hPa 0 mm - 24 W/m² -
1777722680 11.11° C 99% 1013.4 hPa 0 mm - 19 W/m² -
1777722376 11.11° C 99% 1013.4 hPa 0 mm - 14 W/m² -
1777722074 11.11° C 99% 1013.2 hPa 0 mm - 12 W/m² -
1777721771 11.11° C 99% 1012.9 hPa 0 mm - 9 W/m² -
1777721470 11.11° C 99% 1013.1 hPa 0 mm - 6 W/m² -

* Rain latest hour (hover to see other rain measurements)
** Current wind speed in m/s (hover to see current wind gust speed)